GW1826 Weather Reports


Display with metric or nautical units.
time (UTC)temp
F
wind
direction
speed
MPH
gust
MPH
rain 1hr
in
rain 24hr
in
rain mn
in
humidity
%
barometer
mb
20260506113032 52 168 3.0 14.0 0.00 0.00 0.00 86 1017.6
20260506112508 52 163 4.0 13.0 0.00 0.00 0.00 86 1017.6
20260506112010 52 104 5.0 13.0 0.00 0.00 0.00 86 1017.6
20260506111521 52 167 2.0 16.0 0.00 0.00 0.00 86 1017.6
20260506111008 52 142 6.0 16.0 0.00 0.00 0.00 86 1017.6
20260506110513 52 174 2.0 10.0 0.00 0.00 0.00 86 1017.5
20260506110018 52 216 3.0 10.0 0.00 0.00 0.00 86 1017.5
20260506105506 52 206 4.0 11.0 0.00 0.00 0.00 86 1017.3
20260506105011 52 161 4.0 15.0 0.00 0.00 0.00 86 1017.3
20260506104528 52 175 5.0 15.0 0.00 0.00 0.00 86 1017.3
20260506104007 52 144 2.0 15.0 0.00 0.00 0.00 86 1017.1
20260506103507 52 168 5.0 14.0 0.00 0.00 0.00 86 1017.1
20260506103026 52 91 3.0 10.0 0.00 0.00 0.00 86 1017.0
20260506102507 52 154 4.0 14.0 0.00 0.00 0.00 86 1017.0
20260506102011 52 192 5.0 14.0 0.00 0.00 0.00 85 1016.9
20260506101532 52 105 3.0 11.0 0.00 0.00 0.00 86 1016.8
20260506101007 52 200 4.0 10.0 0.00 0.00 0.00 86 1016.8
20260506100504 53 117 2.0 9.0 0.00 0.00 0.00 85 1016.8
20260506100022 53 111 3.0 10.0 0.00 0.00 0.00 85 1016.8
20260506095510 53 136 5.0 13.0 0.00 0.00 0.00 85 1016.7
20260506095009 53 169 5.0 13.0 0.00 0.00 0.00 85 1016.6
20260506094526 53 138 5.0 13.0 0.00 0.00 0.00 85 1016.7
20260506094010 53 186 4.0 13.0 0.00 0.00 0.00 85 1016.6
20260506093511 53 121 3.0 11.0 0.00 0.00 0.00 85 1016.6
20260506093031 53 195 5.0 11.0 0.00 0.00 0.00 85 1016.7
20260506092506 53 128 3.0 11.0 0.00 0.00 0.00 85 1016.6
20260506092011 53 113 2.0 9.0 0.00 0.00 0.00 85 1016.5
20260506091524 53 110 2.0 9.0 0.00 0.00 0.00 85 1016.5
20260506091012 53 186 3.0 10.0 0.00 0.00 0.00 84 1016.5
20260506090513 53 175 4.0 10.0 0.00 0.00 0.00 85 1016.5
20260506090014 53 202 1.0 13.0 0.00 0.00 0.00 84 1016.6
20260506085508 53 141 6.0 13.0 0.00 0.00 0.00 84 1016.6
20260506085002 53 153 4.0 13.0 0.00 0.00 0.00 84 1016.5
20260506084508 53 84 4.0 11.0 0.00 0.00 0.00 84 1016.5
20260506084004 53 135 3.0 10.0 0.00 0.00 0.00 84 1016.4
20260506083504 53 135 3.0 11.0 0.00 0.00 0.00 84 1016.5
20260506083007 53 175 6.0 11.0 0.00 0.00 0.00 84 1016.4
20260506082511 53 109 3.0 14.0 0.00 0.00 0.00 84 1016.4
20260506082004 54 102 5.0 14.0 0.00 0.00 0.00 84 1016.4
20260506081512 54 132 3.0 10.0 0.00 0.00 0.00 84 1016.3
20260506081005 54 152 3.0 10.0 0.00 0.00 0.00 84 1016.3
20260506080504 54 216 4.0 9.0 0.00 0.00 0.00 84 1016.2
20260506073504 54 219 3.0 9.0 0.00 0.00 0.00 83 1015.8
20260506073014 55 165 3.0 10.0 0.00 0.00 0.00 83 1015.9
20260506072507 55 173 2.0 10.0 0.00 0.00 0.00 82 1015.9
20260506072007 55 163 4.0 11.0 0.00 0.00 0.00 82 1015.9
20260506071517 55 145 5.0 11.0 0.00 0.00 0.00 82 1015.8
20260506071010 55 159 3.0 9.0 0.00 0.00 0.00 82 1015.8
20260506070505 55 187 3.0 11.0 0.00 0.00 0.00 82 1015.9
20260506062503 56 166 3.0 14.0 0.00 0.00 0.00 81 1015.5
20260506062008 56 123 4.0 14.0 0.00 0.00 0.00 80 1015.4
20260506061522 56 150 3.0 10.0 0.00 0.00 0.00 80 1015.4
20260506061004 56 154 3.0 14.0 0.00 0.00 0.00 80 1015.4
20260506060502 56 173 5.0 14.0 0.00 0.00 0.00 80 1015.4
20260506051006 57 67 4.0 12.0 0.00 0.00 0.00 79 1015.5
20260506050507 57 138 4.0 11.0 0.00 0.00 0.00 79 1015.4
20260506045003 57 164 4.0 11.0 0.00 0.00 0.00 79 1015.3
20260506044512 57 180 2.0 11.0 0.00 0.00 0.00 79 1015.3
20260506044004 57 179 3.0 7.0 0.00 0.00 0.00 78 1015.1
20260506043510 57 130 1.0 7.0 0.00 0.00 0.00 79 1015.1
20260506043018 57 132 1.0 11.0 0.00 0.00 0.00 78 1015.1
20260506042506 57 173 4.0 16.0 0.00 0.00 0.00 78 1015.0
20260506042009 57 169 3.0 16.0 0.00 0.00 0.00 78 1015.0
20260506041518 57 100 3.0 12.0 0.00 0.00 0.00 77 1014.9
20260506041011 57 131 3.0 13.0 0.00 0.00 0.00 77 1014.9
20260506040503 57 176 2.0 13.0 0.00 0.00 0.00 78 1014.9
20260506040007 57 161 3.0 11.0 0.00 0.00 0.00 77 1014.7
20260506035503 57 186 4.0 14.0 0.00 0.00 0.00 77 1014.7
20260506035007 57 169 3.0 14.0 0.00 0.00 0.00 77 1014.6
20260506034511 58 177 3.0 10.0 0.00 0.00 0.00 77 1014.5
20260506034007 58 104 3.0 13.0 0.00 0.00 0.00 78 1014.5
20260506033509 58 142 4.0 13.0 0.00 0.00 0.00 78 1014.6
20260506033026 58 173 5.0 14.0 0.00 0.00 0.00 78 1014.5
20260506032507 58 205 3.0 14.0 0.00 0.00 0.00 78 1014.4
20260506032007 58 195 5.0 12.0 0.00 0.00 0.00 78 1014.3
20260506031539 58 134 3.0 13.0 0.00 0.00 0.00 78 1014.2
20260506031006 58 207 5.0 16.0 0.00 0.00 0.00 78 1014.2
20260506030508 58 145 6.0 15.0 0.00 0.00 0.00 78 1014.2
20260506030011 58 192 4.0 12.0 0.00 0.00 0.00 78 1014.1
20260506025504 58 206 3.0 13.0 0.00 0.00 0.00 78 1014.1
20260506025010 58 184 4.0 13.0 0.00 0.00 0.00 78 1014.1
20260506024524 58 127 4.0 13.0 0.00 0.00 0.00 78 1014.2
20260506024007 58 113 6.0 17.0 0.00 0.00 0.00 78 1014.1
20260506023506 58 105 5.0 17.0 0.00 0.00 0.00 78 1014.2
20260506023015 58 190 6.0 16.0 0.00 0.00 0.00 78 1014.3
20260506022509 58 163 4.0 14.0 0.00 0.00 0.00 77 1014.3
20260506022011 59 169 4.0 14.0 0.00 0.00 0.00 78 1014.3
20260506021516 59 113 5.0 14.0 0.00 0.00 0.00 78 1014.3
20260506021011 59 148 5.0 14.0 0.00 0.00 0.00 78 1014.3
20260506020503 59 167 4.0 12.0 0.00 0.00 0.00 78 1014.3
20260506020016 59 139 4.0 12.0 0.00 0.00 0.00 78 1014.5
20260506015510 59 169 3.0 12.0 0.00 0.00 0.00 78 1014.4
20260506015005 59 199 2.0 13.0 0.00 0.00 0.00 78 1014.4
20260506014510 59 196 4.0 13.0 0.00 0.00 0.00 77 1014.4
20260506014006 60 228 6.0 12.0 0.00 0.00 0.00 77 1014.3
20260506013505 60 198 5.0 15.0 0.00 0.00 0.00 76 1014.4
20260506013007 60 56 5.0 15.0 0.00 0.00 0.00 76 1014.3
20260506012504 61 238 4.0 12.0 0.00 0.00 0.00 76 1014.2
20260506012004 61 128 5.0 12.0 0.00 0.00 0.00 75 1014.3
20260506011515 61 120 2.0 13.0 0.00 0.00 0.00 74 1014.3
20260506011004 61 131 5.0 13.0 0.00 0.00 0.00 74 1014.3
20260506010506 62 240 5.0 13.0 0.00 0.00 0.00 74 1014.4
20260506010041 62 169 5.0 13.0 0.00 0.00 0.00 74 1014.4
20260506005504 62 130 4.0 17.0 0.00 0.00 0.00 73 1014.4
20260506005003 62 216 6.0 17.0 0.00 0.00 0.00 74 1014.4
20260506004517 62 135 4.0 13.0 0.00 0.00 0.00 73 1014.3
20260506004007 62 192 5.0 15.0 0.00 0.00 0.00 73 1014.2
20260506003503 62 194 5.0 15.0 0.00 0.00 0.00 74 1014.3
20260506003004 62 217 6.0 17.0 0.00 0.00 0.00 74 1014.3
20260506002503 62 93 3.0 19.0 0.00 0.00 0.00 72 1014.4
20260506002003 62 91 3.0 19.0 0.00 0.00 0.00 73 1014.4
20260506001508 62 135 4.0 16.0 0.00 0.00 0.00 74 1014.4
20260506001003 62 207 5.0 17.0 0.00 0.00 0.00 74 1014.5
20260506000505 62 199 5.0 17.0 0.00 0.00 0.00 74 1014.6
20260506000013 62 235 8.0 15.0 0.00 0.00 0.00 74 1014.6
20260505235508 61 200 6.0 16.0 0.00 0.00 0.00 75 1014.6
20260505235003 61 138 4.0 16.0 0.00 0.00 0.00 75 1014.6
20260505234505 61 144 7.0 17.0 0.00 0.00 0.00 75 1014.8
20260505234004 61 78 6.0 17.0 0.00 0.00 0.00 74 1014.9
20260505233503 62 212 5.0 16.0 0.00 0.00 0.00 74 1015.0
20260505233009 62 216 3.0 17.0 0.00 0.00 0.00 75 1015.0
20260505232511 62 213 5.0 17.0 0.00 0.00 0.00 74 1015.1
20260505232005 62 343 7.0 14.0 0.00 0.00 0.00 74 1015.2
20260505231513 63 261 5.0 14.0 0.00 0.00 0.00 73 1015.1
20260505231004 62 116 3.0 11.0 0.00 0.00 0.00 74 1015.2
20260505230503 62 78 4.0 11.0 0.00 0.00 0.00 75 1015.2
20260505230024 61 242 5.0 15.0 0.00 0.00 0.00 75 1015.3
20260505225506 61 255 4.0 17.0 0.00 0.00 0.00 75 1015.3
20260505225003 61 213 9.0 18.0 0.00 0.00 0.00 75 1015.3
20260505224515 61 210 8.0 18.0 0.00 0.00 0.00 75 1015.4
20260505224006 61 215 7.0 19.0 0.00 0.00 0.00 76 1015.4
20260505223505 61 199 8.0 19.0 0.00 0.00 0.00 75 1015.4
20260505223008 62 194 7.0 17.0 0.00 0.00 0.00 76 1015.4
20260505222505 61 128 7.0 17.0 0.00 0.00 0.00 76 1015.4
20260505222005 61 217 7.0 17.0 0.00 0.00 0.00 76 1015.5
20260505221510 61 207 6.0 17.0 0.00 0.00 0.00 76 1015.5
20260505221009 61 256 7.0 18.0 0.00 0.00 0.00 75 1015.6
20260505220504 61 209 6.0 18.0 0.00 0.00 0.00 77 1015.5
20260505220026 61 227 9.0 17.0 0.00 0.00 0.00 76 1015.5
20260505215504 61 217 9.0 16.0 0.00 0.00 0.00 75 1015.6
20260505215007 61 178 4.0 15.0 0.00 0.00 0.00 75 1015.6
20260505214523 61 186 4.0 15.0 0.00 0.00 0.00 78 1015.5
20260505214003 61 139 6.0 15.0 0.00 0.00 0.00 76 1015.4
20260505213506 61 186 5.0 17.0 0.00 0.00 0.00 77 1015.5
20260505213020 61 217 8.0 17.0 0.00 0.00 0.00 76 1015.5
20260505212511 61 159 5.0 16.0 0.00 0.00 0.00 77 1015.5
20260505212008 61 210 6.0 16.0 0.00 0.00 0.00 75 1015.7
20260505211521 61 184 9.0 21.0 0.00 0.00 0.00 76 1015.7
20260505211005 60 306 3.0 21.0 0.00 0.00 0.00 77 1015.7
20260505210503 60 207 7.0 19.0 0.00 0.00 0.00 76 1015.6
20260505210017 61 245 8.0 19.0 0.00 0.00 0.00 78 1015.7
20260505205508 61 255 4.0 18.0 0.00 0.00 0.00 77 1015.7
20260505205008 60 218 5.0 18.0 0.00 0.00 0.00 79 1015.9
20260505204512 60 146 9.0 15.0 0.00 0.00 0.00 77 1015.9
20260505204006 61 215 7.0 15.0 0.00 0.00 0.00 76 1016.0
20260505203507 61 244 5.0 16.0 0.00 0.00 0.00 77 1016.1
20260505203023 61 288 6.0 16.0 0.00 0.00 0.00 76 1016.0
20260505202507 61 251 6.0 16.0 0.00 0.00 0.00 77 1015.9
20260505202008 61 207 7.0 15.0 0.00 0.00 0.00 78 1015.9
20260505201521 61 211 7.0 14.0 0.00 0.00 0.00 77 1016.0
20260505201004 61 215 5.0 14.0 0.00 0.00 0.00 77 1016.0
20260505200507 61 208 7.0 15.0 0.00 0.00 0.00 76 1016.0
20260505200022 61 190 8.0 15.0 0.00 0.00 0.00 75 1015.9
20260505195504 61 203 7.0 18.0 0.00 0.00 0.00 76 1016.0
20260505195006 61 130 7.0 18.0 0.00 0.00 0.00 77 1016.0
20260505194521 60 246 4.0 15.0 0.00 0.00 0.00 78 1016.0
20260505194007 61 226 7.0 15.0 0.00 0.00 0.00 79 1016.0
20260505193506 61 300 4.0 15.0 0.00 0.00 0.00 78 1016.0
20260505193016 60 207 5.0 15.0 0.00 0.00 0.00 78 1016.0
20260505192506 61 209 4.0 11.0 0.00 0.00 0.00 76 1016.0
20260505192009 60 181 6.0 16.0 0.00 0.00 0.00 79 1016.0
20260505191512 60 298 3.0 16.0 0.00 0.00 0.00 78 1016.0
20260505191005 60 230 5.0 14.0 0.00 0.00 0.00 79 1016.1
20260505190512 60 215 5.0 15.0 0.00 0.00 0.00 78 1016.1
20260505190017 60 256 4.0 16.0 0.00 0.00 0.00 78 1016.0
20260505185508 60 219 3.0 16.0 0.00 0.00 0.00 78 1015.9
20260505185009 59 197 5.0 15.0 0.00 0.00 0.00 80 1015.9
20260505184524 59 200 6.0 15.0 0.00 0.00 0.00 80 1016.1
20260505184007 59 229 5.0 16.0 0.00 0.00 0.00 78 1016.1
20260505183508 59 166 7.0 16.0 0.00 0.00 0.00 82 1016.2
20260505183018 59 250 4.0 14.0 0.00 0.00 0.00 78 1016.1
20260505182506 59 189 5.0 14.0 0.00 0.00 0.00 81 1016.1
20260505182008 59 207 4.0 12.0 0.00 0.00 0.00 81 1016.1
20260505181521 59 281 6.0 12.0 0.00 0.00 0.00 79 1016.0
20260505181009 59 211 5.0 12.0 0.00 0.00 0.00 80 1015.9
20260505180508 59 198 2.0 13.0 0.00 0.00 0.00 83 1015.9
20260505180021 58 267 6.0 13.0 0.00 0.00 0.00 80 1015.9
20260505175508 59 173 3.0 10.0 0.00 0.00 0.00 81 1015.9
20260505175014 58 191 3.0 10.0 0.00 0.00 0.00 82 1015.9
20260505174514 58 243 4.0 13.0 0.00 0.00 0.00 82 1016.0
20260505174012 57 242 6.0 13.0 0.00 0.00 0.00 84 1016.0
20260505173508 57 206 4.0 12.0 0.00 0.00 0.00 83 1015.9
20260505173014 57 113 5.0 12.0 0.00 0.00 0.00 84 1015.9
20260505172504 57 186 2.0 11.0 0.00 0.00 0.00 83 1015.9
20260505172008 57 223 2.0 13.0 0.00 0.00 0.00 85 1015.9
20260505171533 56 194 3.0 13.0 0.00 0.00 0.00 85 1015.9
20260505171004 56 176 5.0 9.0 0.00 0.00 0.00 85 1015.8
20260505170509 56 190 2.0 13.0 0.00 0.00 0.00 86 1015.9
20260505170021 55 209 3.0 13.0 0.00 0.00 0.00 86 1015.9
20260505165506 55 210 4.0 10.0 0.00 0.00 0.00 85 1015.9
20260505165007 55 101 6.0 10.0 0.00 0.00 0.00 86 1015.8
20260505164516 55 187 4.0 10.0 0.00 0.00 0.00 86 1015.7
20260505164008 55 191 4.0 10.0 0.00 0.00 0.00 86 1015.8
20260505163508 55 182 3.0 9.0 0.00 0.00 0.00 86 1015.8
20260505163021 55 196 4.0 8.0 0.00 0.00 0.00 86 1015.7
20260505162504 55 201 4.0 13.0 0.00 0.00 0.00 85 1015.7
20260505162008 56 157 4.0 15.0 0.00 0.00 0.00 84 1015.7
20260505161520 56 140 5.0 15.0 0.00 0.00 0.00 84 1015.7
20260505161010 56 116 4.0 14.0 0.00 0.00 0.00 84 1015.7
20260505160515 56 188 5.0 16.0 0.00 0.00 0.00 85 1015.6
20260505153022 55 121 4.0 14.0 0.00 0.00 0.00 86 1015.5
20260505152507 55 192 4.0 14.0 0.00 0.00 0.00 85 1015.4
20260505152007 55 165 3.0 15.0 0.00 0.00 0.00 86 1015.4
20260505151529 55 198 3.0 15.0 0.00 0.00 0.00 86 1015.3
20260505151011 55 186 4.0 13.0 0.00 0.00 0.00 86 1015.3
20260505150510 55 138 6.0 13.0 0.00 0.00 0.00 86 1015.3
20260505140507 54 169 4.0 12.0 0.00 0.00 0.00 87 1014.2
20260505125004 54 126 4.0 15.0 0.00 0.00 0.00 86 1013.7
20260505124519 54 182 3.0 15.0 0.00 0.00 0.00 86 1013.6
20260505124003 54 202 5.0 14.0 0.00 0.00 0.00 86 1013.6
20260505123502 54 106 4.0 17.0 0.00 0.00 0.00 86 1013.5
20260505123007 54 167 6.0 17.0 0.00 0.00 0.00 86 1013.5
20260505122504 54 145 3.0 12.0 0.00 0.00 0.00 85 1013.4
20260505122004 54 189 3.0 16.0 0.00 0.00 0.00 85 1013.3
20260505121512 54 176 4.0 16.0 0.00 0.00 0.00 85 1013.3
20260505121004 54 126 6.0 11.0 0.00 0.00 0.00 84 1013.2
20260505120503 54 156 6.0 15.0 0.00 0.00 0.00 84 1013.2
20260505120033 55 194 2.0 14.0 0.00 0.00 0.00 83 1013.2
20260505115504 55 123 5.0 13.0 0.00 0.00 0.00 83 1013.2
20260505115006 55 240 5.0 13.0 0.00 0.00 0.00 83 1013.0
20260505114508 55 199 3.0 9.0 0.00 0.00 0.00 83 1013.0
20260505114007 55 167 3.0 11.0 0.00 0.00 0.00 82 1012.9
20260505113505 55 132 4.0 13.0 0.00 0.00 0.00 82 1012.9